Location: Powder Track
(41.8531°N, 72.3584°W)
Time: 07:23:31
(UTC+00:00)

Altair - Pass Details

Date: 04 August 2021
Orbit: 1501 x 1682 km, 47.2° (Epoch: 19 September)

Event Time Altitude Azimuth Distance (km) Brightness Sun altitude
Rises 08:39:59 0° 278° (W) 4,713 9.6 -11.6°
Reaches altitude 10° 08:43:08 10° 282° (WNW) 3,710 9.1 -11.1°
Maximum altitude 08:52:22 63° 3° (N) 1,656 7.9 -9.7°
Drops below altitude 10° 09:01:28 10° 84° (E) 3,653 10.6 -8.2°
Sets 09:04:32 0° 88° (E) 4,637 11.2 -7.8°
